SCP
0 0 0 0 0 0 0 0 0 0 0 0 0 0 0 0 0 0 0 0 0 0 0 0 0 0 0 0 0 0 0 0 0 0 0 0 0 0 0 0 0 0 0
0 0 0 0 0 0 0 0 0 0 0 0 0 0 0 0 0 0 0 0 0 0 0 0 0 0 0 0 0 0 0 0 0 0 0 0 0 0 0 0 0 0 0
0 0 0 0 0 0 0 0 -0 0 0 0 0 0 0 0 0 0 0 0 0 0 0 0 0 0 0 0 0 0 0 0 0 0 0 0 0 0 0 0 0 0 0
0 0 0 0 0 0 0 0 0 0 0 0 0 0 0 0 0 0 0 0 0 0 0 0 0 0 0 0 0 0 0 0 0 0 0 0 0 0 0 0 0 0 0
0 0 0 0 0 0 0 0 0 0 0 0 0 0 0 0 0 0 0 0 0 0 0 0 0 0 0 0 0 0 0 0 0 0 0 0 0 0 0 0 0 0 0
0 0 0 0 0 0 0 0 0 0 0 0 0 0 0 0 0 0 0 0 0 0 0 0 0 0 0 0 0 0 0 0 0 0 0 0 0 0 0 0 0 0 0
0 0 0 0 0 0 0 0 0 0 0 0 0 0 0 0 0 0 0 0 0 0 0 0 0 0 0 0 0 0 0 0 0 0 0 0 0 0 0 0 0 0 0
0 0 0 0 0 0 0 0 0 0 0 0 0 0 0 0 0 0 0 0 0 0 0 0 0 0 0 0 0 0 0 0 0 0 0 0 0 0 0 0 0 0 0
0 0 0 0 0 0 0 0 0 0 0 0 0 0 0 0 0 0 0 0 0 0 0 0 0 0 0 0 0 0 0 0 0 0 0 0 0 0 0 0 0 0 0
0 0 0 0 0 0 0 0 0 0 0 0 0 0 0 0 0 0 0 0 0 0 0 0 0 0 0 0 0 0 0 0 0 0 0 0 0 0 0 0 0 0 0
0 0 0 0 0 0 0 0 0 0 0 0 0 0 0 0 0 0 0 0 0 0 0 0 0 0 0 0 0 0 0 0 0 0 0 0 0 0 0 0 0 0 0
0 0 0 0 0 0 0 0 0 0 0 0 0 0 0 0 0 0 0 0 0 0 0 0 0 0 0 0 0 0 0 0 0 0 0 0 0 0 0 0 0 0 0
0 0 0 0 0 0 0 0 0 0 0 0 0 0 0 0 0 0 0 0 0 0 0 0 0 0 0 0 0 0 0 0 0 0 0 0 0 0 0 0 0 0 0
0 0 0 0 0 0 0 0 0 0 0 0 0 0 0 0 0 0 0 0 0 0 0 0 0 0 0 0 0 0 0 0 0 0 0 0 0 0 0 0 0 0 0
0 0 0 0 0 0 0 0 0 0 0 0 0 0 0 0 0 0 0 0 0 0 0 0 0 0 0 0 0 0 0 0 0 0 0 0 0 0 0 0 0 0 0
0 0 0 0 0 0 0 0 0 0 0 0 0 0 0 0 0 0 0 0 0 0 0 0 0 0 0 0 0 0 0 0 0 0 0 0 0 0 0 0 0 0 0
0 0 0 0 0 0 0 0 0 0 0 0 0 0 0 0 0 0 0 0 0 0 0 0 0 0 0 0 0 0 0 0 0 0 0 0 0 0 0 0 0 0 0
0 0 0 0 0 0 0 0 0 0 0 0 0 0 0 0 0 0 0 0 0 0 0 0 0 0 0 0 0 0 0 0 0 0 0 0 0 0 0 0 0 0 0
0 0 0 0 0 0 0 0 0 0 0 0 0 0 0 0 0 0 0 0 0 0 0 0 0 0 0 0 0 0 0 0 0 0 0 0 0 0 0 0 0 0 0
0 0 0 0 0 0 0 0 0 0 0 0 0 0 0 0 0 0 0 0 0 0 0 0 0 0 0 0 0 0 0 0 0 0 0 0 0 0 0 0 0 0 0
0 0 0 0 0 0 0 0 0 0 0 0 0 0 0 0 0 0 0 0 0 0 0 0 0 0 0 0 0 0 0 0 0 0 0 0 0 0 0 0 0 0 0
0 0 0 0 0 0 0 0 0 0 0 0 0 0 0 0 0 0 0 0 0 0 0 0 0 0 0 0 0 0 0 0 0 0 0 0 0 0 0 0 0 0 0
0 0 0 0 0 0 0 0 0 0 0 0 0 0 0 0 0 0 0 0 0 0 0 0 0 0 0 0 0 0 0 0 0 0 0 0 0 0 0 0 0 0 0
0 0 0 0 0 0 0 0 0 0 0 0 0 0 0 0 0 0 0 0 0 0 0 0 0 0 0 0 0 0 0 0 0 0 0 0 0 0 0 0 0 0 0
0 0 0 0 0 0 0 0 0 0 0 0 0 0 0 0 0 0 0 0 0 0 0 0 0 0 0 0 0 0 0 0 0 0 0 0 0 0 0 0 0 0 0
0 0 0 0 0 0 0 0 0 0 0 0 0 0 0 0 0 0 0 0 0 0 0 0 0 0 0 0 0 0 0 0 0 0 0 0 0 0 0 0 0 0 0
Wind_Speed
1 1 1 1 2 1 1 2 2 2 2 2 1 1 1 1 1 1 1 3 2 2 3 3 4 4 5 5 5 5 6 6 6 7 8 9 10 10 11 11 12 12 12
2 2 2 2 2 2 1 1 2 2 2 1 2 1 1 0 0 1 1 1 2 2 2 3 4 4 5 5 6 6 6 6 7 7 8 9 10 10 11 11 11 12 12
2 2 2 2 2 2 2 2 2 2 2 2 2 2 1 1 0 1 1 1 1 2 2 3 3 4 5 6 6 6 6 7 6 7 8 8 8 9 10 10 10 11 11
3 2 2 2 2 2 2 2 2 2 2 2 2 2 1 1 1 0 1 1 1 1 1 1 3 4 5 6 7 7 7 7 6 7 7 7 7 8 9 9 10 10 11
3 2 1 2 2 2 2 2 2 1 1 2 2 2 2 1 1 0 0 1 1 1 0 1 2 3 4 5 6 7 7 7 7 6 6 6 6 7 8 8 9 9 10
3 2 2 2 2 2 2 2 2 2 1 1 2 3 3 2 2 1 0 0 0 1 1 1 0 1 3 3 5 6 7 7 8 7 6 6 6 7 9 9 9 9 10
2 2 2 2 2 2 2 2 1 2 2 1 2 3 4 3 3 2 1 1 1 0 1 1 1 1 1 2 3 6 6 7 7 8 7 7 6 7 8 9 9 10 10
1 1 1 1 1 1 3 2 2 1 2 2 2 2 3 4 4 3 2 1 1 1 1 1 1 1 1 1 1 4 5 7 8 8 8 8 7 7 8 8 9 10 10
1 1 1 1 1 1 1 1 1 1 1 2 1 2 2 1 3 3 3 2 2 1 0 0 1 1 1 1 1 2 4 5 7 9 9 9 9 8 8 8 8 9 9
1 0 1 1 1 0 1 1 1 1 1 1 1 1 2 3 1 2 3 3 2 1 1 1 1 1 1 1 2 2 3 4 5 7 8 9 9 9 9 9 8 9 9
2 1 1 1 1 1 1 1 1 1 1 1 0 0 1 1 1 2 1 3 3 2 1 1 1 1 1 2 2 3 4 5 5 6 7 9 9 9 10 9 9 9 9
2 2 1 1 1 1 1 1 0 0 0 1 1 1 1 1 1 2 1 1 2 2 2 1 1 1 1 2 3 4 4 4 5 5 6 7 8 9 10 10 10 10 10
2 3 1 1 1 1 1 0 0 0 0 0 1 1 1 2 2 2 2 1 1 2 2 2 1 1 1 1 2 4 4 4 5 5 5 5 6 7 9 10 11 11 10
2 2 2 2 2 1 1 0 0 0 0 0 1 1 1 1 1 2 3 2 0 2 2 2 2 1 1 1 2 4 3 5 5 5 5 5 5 5 6 8 9 10 10
1 2 1 1 2 1 1 0 0 1 0 0 1 1 1 1 1 1 2 3 3 1 2 2 2 2 1 1 2 2 2 4 5 5 6 5 5 5 5 6 6 7 7
1 1 1 2 2 2 1 1 1 1 0 1 1 1 1 1 1 1 1 1 2 3 2 2 2 2 2 2 3 2 2 4 5 6 6 6 5 5 6 6 6 6 6
1 1 1 1 1 2 2 1 1 1 1 1 1 1 2 1 1 1 1 1 2 2 2 2 2 1 1 1 1 1 1 2 2 5 5 6 6 6 6 6 6 6 6
2 1 1 1 1 1 1 1 1 1 1 1 2 1 2 1 1 1 1 1 2 2 3 2 2 1 2 2 1 1 1 2 2 3 5 5 6 6 6 7 6 6 6
1 1 1 1 2 1 1 1 1 1 1 2 2 2 2 1 1 1 1 1 1 2 2 2 2 1 1 1 0 1 1 1 1 2 3 4 4 5 5 6 6 6 6
1 1 1 2 2 2 1 1 1 2 2 2 2 2 2 2 3 2 2 2 2 1 1 1 2 1 1 1 1 1 1 0 1 1 1 1 2 3 5 5 6 6 6
1 1 1 2 2 2 1 1 1 1 2 3 2 2 2 3 3 3 2 2 2 2 1 2 2 1 2 1 2 2 2 1 1 1 1 1 1 1 2 4 5 6 6
2 2 1 2 2 3 3 2 1 1 1 2 3 3 3 3 3 3 4 4 4 4 3 2 2 3 3 3 2 2 2 1 2 2 2 2 2 2 2 2 4 7 7
2 2 3 2 3 4 5 4 3 1 2 2 3 3 3 3 3 2 3 4 5 6 7 5 4 5 4 4 4 3 3 3 4 3 3 2 2 2 2 2 6 7 7
2 3 3 3 3 5 6 6 4 2 2 3 3 3 4 4 3 3 2 3 3 4 5 5 5 6 5 4 5 5 5 3 1 1 3 3 2 2 2 1 4 6 7
2 3 3 3 3 6 7 6 4 1 2 3 4 3 3 4 6 4 2 3 4 4 5 6 7 6 6 6 4 3 3 3 2 2 2 3 2 1 1 1 2 5 6
2 3 3 3 3 5 7 7 5 2 2 3 3 4 5 5 6 4 3 3 5 5 3 3 3 4 4 3 4 5 5 4 3 3 3 3 3 2 1 1 1 2 3
Wind_Direction
56 38 14 357 340 331 321 319 323 332 336 340 338 7 359 256 219 216 249 230 214 200 191 181 179 173 156 142 133 126 122 121 121 121 127 128 128 130 134 139 141 141 145
71 55 28 8 352 349 342 332 332 341 332 348 348 352 11 30 154 187 222 250 245 227 207 194 185 180 168 154 143 135 131 129 122 119 122 127 130 132 137 139 144 145 146
75 68 31 4 343 344 359 11 9 12 2 3 350 345 7 5 263 224 216 231 257 256 232 200 189 177 170 162 152 144 139 133 128 122 125 128 135 139 143 146 147 147 149
66 58 32 356 341 3 13 7 13 17 4 360 342 330 342 345 328 235 214 213 232 261 271 198 183 173 166 164 161 154 147 140 136 134 134 136 138 144 149 149 150 152 153
53 59 37 348 357 18 11 0 22 31 359 348 336 335 341 342 318 316 176 208 200 211 222 204 179 176 166 162 162 160 157 152 149 149 148 145 146 153 154 152 153 155 157
51 52 34 5 14 23 7 7 6 11 354 342 359 3 349 346 353 358 295 16 222 204 155 135 134 182 169 168 169 170 167 165 162 160 162 157 157 159 159 158 161 161 161
47 54 34 9 13 17 356 359 17 20 2 10 38 6 352 358 12 6 10 26 44 89 118 125 131 113 167 182 183 185 182 177 172 169 166 164 163 158 157 161 167 168 167
19 47 51 20 7 12 9 13 36 33 354 27 83 60 7 350 348 -0 2 15 27 51 80 133 138 146 153 150 204 192 191 186 183 180 178 175 171 169 166 166 167 169 170
345 31 37 34 20 40 352 343 45 89 18 356 72 125 120 264 318 335 350 5 7 17 313 210 178 180 175 168 190 200 194 197 193 188 186 184 182 180 176 169 169 171 170
297 323 351 17 22 9 323 315 79 121 114 15 357 57 161 170 154 333 333 343 351 354 319 260 210 205 175 170 189 180 186 201 203 197 193 189 186 183 181 177 177 177 175
300 292 315 357 6 330 312 331 23 82 124 142 139 37 62 69 133 152 295 325 344 334 316 266 216 207 193 185 195 196 192 204 208 207 201 197 194 189 185 181 179 178 178
313 308 301 309 321 319 298 288 316 63 123 141 148 139 153 150 184 163 197 279 311 310 317 314 259 224 207 196 212 200 196 201 204 208 207 205 203 197 194 190 187 185 185
294 292 299 288 289 276 271 275 357 337 359 164 202 202 194 205 187 166 157 210 303 311 328 324 291 247 214 194 220 208 206 206 205 205 207 205 205 206 199 197 195 192 193
258 275 280 279 279 285 310 2 43 297 173 210 241 215 211 238 192 174 168 157 96 338 337 306 312 271 236 212 229 214 221 218 217 211 205 200 202 202 193 198 201 197 195
281 289 289 305 309 316 323 16 343 290 303 254 254 251 240 257 222 203 177 165 156 181 290 289 299 297 265 235 237 214 219 226 220 214 210 205 203 200 195 190 192 194 190
308 311 322 320 326 332 331 4 336 300 320 289 263 275 280 273 262 226 182 176 161 163 216 266 260 271 272 255 230 215 220 224 223 215 209 203 199 198 195 191 187 184 184
310 297 294 311 323 321 323 346 314 329 340 323 317 288 287 279 258 257 195 170 172 158 192 272 275 282 276 265 258 226 218 215 224 217 210 203 200 202 201 195 189 183 180
303 290 293 307 310 312 319 323 297 303 290 303 301 302 294 291 275 261 216 208 201 185 180 235 282 288 263 252 233 222 223 207 212 218 213 205 201 200 196 190 188 186 185
321 338 336 297 290 289 301 296 285 288 276 270 265 257 266 255 274 268 231 225 223 207 183 199 255 261 269 266 235 255 228 239 217 200 205 206 198 196 189 186 187 186 188
302 317 312 293 290 283 276 294 306 303 295 292 277 256 246 224 229 236 224 224 216 203 192 205 247 266 262 266 174 210 244 257 237 205 178 163 169 182 192 189 186 185 186
281 275 309 319 313 293 282 288 277 295 297 298 297 279 260 243 237 226 212 208 195 200 206 211 240 256 253 232 221 209 207 226 250 202 181 196 174 185 195 198 192 187 186
294 300 294 293 298 298 308 298 274 271 284 288 288 286 279 270 274 262 240 218 196 193 202 207 229 229 239 228 218 199 187 185 243 217 170 218 182 205 215 205 195 189 189
296 297 288 283 279 284 295 297 280 251 270 276 277 278 282 275 266 260 273 272 247 229 207 196 215 229 229 220 202 204 202 200 215 204 164 213 202 217 224 210 192 190 189
286 281 282 276 276 290 292 287 284 259 272 278 274 261 258 266 258 245 245 259 260 252 236 226 221 232 232 227 208 204 201 203 237 219 167 192 203 214 221 214 201 191 190
296 282 278 275 275 287 291 284 274 263 274 282 286 283 266 263 269 255 231 246 265 269 259 240 235 239 239 229 207 176 175 173 213 228 191 174 184 187 212 233 219 195 188
284 295 291 282 276 282 292 288 271 232 259 275 286 290 279 270 281 262 231 234 250 258 257 264 257 264 254 244 221 206 196 189 186 213 202 170 172 153 198 251 207 191 184